HR AMSAT ORBITAL ELEMENTS FOR OSCAR SATELLITES
FROM WA5QGD FORT WORTH,TX November 1, 2001
SEND SUBSCRIBE/UNSUBSCRIBE TO majordomo@amsat.org ONLY
BID: ORB01305.O
TO ALL RADIO AMATEURS BT

Satellite: FO-29
Catalog number: 24278
Epoch time:      01304.58432477
Element set:     453
Inclination:       98.5238 deg
RA of node:       151.1679 deg
Eccentricity:    0.0351333
Arg of perigee:     8.4055 deg
Mean anomaly:     352.2764 deg
Mean motion:   13.52791928 rev/day
Decay rate:       1.26e-06 rev/day^2
Epoch rev:           25708
Checksum:              316

-------------------  FO-29(JAS-2)のテレメトリに関する情報  ---------------------- 
 
2)上記11月06日(火)のテレメトリの最終行を分析しておきます.

AS25788C   06NOV2001
18:05-18:20(JST)
FREQ.  435.800-.789MHz

HI HI AE C7 88 55 00 D4 50 A7 09 02 5D 8C 71 5F 91 8F B0 8D 90 8A 93 96 8D 

テレメトリ   内 容         換算算値 単 位
3C	磁気センサーZ軸=	45588.2	[nT]
3D	磁気センサX軸	=	68627.4	[nT]
4A	太陽電池発生電流=	 1107.9	[mA]
4B	B充放電電流	=	 -138.0	[mA]
4C	B端子電圧	=	   15.6	[V]
4D	B中間端子電圧	=	    6.9	[V]
5A	バス電圧	=	   17.3	[V]
5B	JTA送信電力	=	  818.4	[mW]
5C 	構体温度1	=	   26.0	[℃]
5D	構体温度2	=	   28.3	[℃]
6A	構体温度3	=	   24.8	[℃]
6B	構体温度4	=	   23.6	[℃]
6C	Bセル温度	=	   27.1	[℃]

 ========================== FO-29(ふじ3号)のQSO情報等 ======================
   
 3)[jamsat-bb:

 ===============================================================================
   4)JARL のホームページに運用予定が記載されていましたのでご紹介します.
       ( http://www.jarl.or.jp/Japanese/3_Fuji/new/uy.htm )

       
      ふじ3号(JAS−2)の運用 

        *** 運用予定について ***


 10月1日(月) 〜 12月3日(月)アナログ系運用 

  *なお,運用予定は都合により,変更することがありますので,あらかじめご了承願います。

 照会先 : lab@jarl.or.jp

 最新の情報はテレホンサービス(03−3942−1000)をお聞きください。  
 以後の運用につきましては平成13年12月上旬にお知らせいたします。 
     
-----------------------    FO−20(JAS-1b)道要素   -------------------------
  5)
  ■ 軌道要素1 :出典はFO-29「ふじ3号」に同じ.
  
FO-20
1 20480U 90013C   01298.21283653 -.00000018  00000-0  31242-4 0  3504
2 20480  99.0440 342.2483 0540881  14.7838 346.8398 12.83299216548770
 
  ■ 軌道要素2 :出典はFO−29「ふじ3号」に同じ.
               
Satellite: FO-20
Catalog number: 20480
Epoch time:      01298.21283653
Element set:     350
Inclination:       99.0440 deg
RA of node:       342.2483 deg
Eccentricity:    0.0540881
Arg of perigee:    14.7838 deg
Mean anomaly:     346.8398 deg
Mean motion:   12.83299216 rev/day
Decay rate:       -1.8e-07 rev/day^2
Epoch rev:           54877
Checksum:              319

 --------------------------------------------------------------------------------
 
         ■ ふじ2号/FO−20/JAS-1b ■      
            
          「ふじ2号」 現況                                                                                  
             
   JAS-1b(ふじ2号)のCWテレメトリ信号に,1997年10月12日12時(JST)の
 日本上空通過時,3桁の数字が繰り返されるはずが3個の長音の繰り返しとなっているという
 異常が発見されました。この不具合は次の通過時からは回復していましたが13日15時20分の
 通過時に再び観測されました。現在はA0の送信が続いています。衛星のアナログ系中継モード
 動作は異常が無く,正常時のテレメトリ内容からは衛星の動作に異常は認められません。従って,
 直ちに衛星のミッションに影響することは無いと予想されますので,当面はアナログ系中継
 モードを継続します。衛星は既に打ち上げてから7年8ヶ月を経ておりますので,今後は監視を
 強化する予定です。アマチュア各位のレポートをお待ちします。
 -------------------------------------------------------------------------------- 
  1997年10月14日 00時35分 確認のテレメトリ音 151 KB (A0) 
  1997年10月14日 11時10分 確認のテレメトリ音 216 KB (異常キーイング) 

  以上 JARLのホ−ムページの http://www.jarl.or.jp/Japanese/3_Fuji/new/fuji.htm

===================== FO-20 ふじ2号 のテレメトリ観測結果 ====================

  10月27日(土)11:33(JST)の観測結果ではテレメトリは、以前観測した単一周波数の
ドップラー効果で周波数がずれていくのみの状態でした。
                                         
   =============   JAS-2 (ふじ3号)と現在までの情報   ===========
  
  A.電話によるふじ3号の運用情報
      社団法人日本アマチュア連盟によるサービス
           TEL .   03− 3942 − 1000
  B.アマチュア無線FAXサービス
      JARLによるふじ3号の軌道情報(オービットカレンダー)
         FAX No.  03− 3233 −0055
  C.WWWブラウザで情報を簡単に見れる人のためにJAS−2
     ふじ3号の衛星としての運用されるまでの名前)の概要、打ち上げ
     までの状況、運用中における状況を説明したホームページを紹介し
     ておきます.
     社団法人日本アマチュア無線連盟(JARL)のホームページ

          http://www.jarl.or.jp/Japanese/3_Fuji/jasmenu.htm
 
     宇宙開発事業団(NASDA)ホームページ 
          http://www.nasda.go.jp/
         打上げ衛星 :地球観測プラットフォーム技術衛星(ADEOS) 
                       アマチュア衛星3号(JAS-2)
          http://spaceboy.nasda.go.jp/note/eisei/j/Eis15h_j.html#Eis15h_01_j
     http://spaceboy.nasda.go.jp/note/eisei/j/Eis15i_j.html        

  D.JAMSATによる軌道情報の活用
        JAMSATのホームページまたはjamsat−kepsの軌道要素より
      衛星の軌道情報を得る.
     JAMSATホームページ
               URL    http://www.jamsat.or.jp
       上記ホームページでは各地で行われるアマチュア通信衛星に関する
      ミューティングのお知らせや世界のアマチュア衛星に関する情報が
      満載されています.
 ========================================================================  
     JAMSATのメンバーのご協力によりJH6MME(高山 秀造)が
    執筆・編集を担当しております.ご指摘の意見、疑問やこのようにしたら
    というアイデアがありましたら小さなことでもかまいませんので気軽に下
    記アドレスまでご連絡ください.jamsat−newsからjas2
    infoへの転載をJH4PHW局坂井さんに担当して頂いております.  
                  E-mail : jh6mme@jamsat.or.jp : jh4phw@jamsat.or.jp
 ===============================   END  ===============================